Time,TemperatureF,DewpointF,PressureIn,WindDirection,WindDirectionDegrees,WindSpeedMPH,WindSpeedGustMPH,Humidity,HourlyPrecipIn,Conditions,Clouds,dailyrainin,SoftwareType,DateUTC
2013-10-08 00:03:00,53.0,39.5,30.08,South,181,0.0,0.0,60,0.00,,,0.00,Wunderground v.1.15,2013-10-08 05:03:00,
2013-10-08 00:08:00,52.9,39.4,30.08,South,181,0.0,0.0,60,0.00,,,0.00,Wunderground v.1.15,2013-10-08 05:08:00,
2013-10-08 00:14:00,52.8,38.9,30.08,South,181,0.0,0.0,59,0.00,,,0.00,Wunderground v.1.15,2013-10-08 05:14:00,
2013-10-08 00:19:00,52.8,38.9,30.08,South,181,0.0,0.0,59,0.00,,,0.00,Wunderground v.1.15,2013-10-08 05:19:00,
2013-10-08 00:24:00,52.7,39.2,30.08,South,181,0.0,0.0,60,0.00,,,0.00,Wunderground v.1.15,2013-10-08 05:24:00,
2013-10-08 00:30:00,52.6,39.1,30.08,South,181,0.0,0.0,60,0.00,,,0.00,Wunderground v.1.15,2013-10-08 05:30:00,
2013-10-08 00:36:00,52.6,39.1,30.08,South,181,0.0,0.0,60,0.00,,,0.00,Wunderground v.1.15,2013-10-08 05:36:00,
2013-10-08 00:42:00,52.7,39.2,30.08,South,181,0.0,0.0,60,0.00,,,0.00,Wunderground v.1.15,2013-10-08 05:42:00,
2013-10-08 00:47:00,52.8,39.7,30.08,South,181,0.0,0.0,61,0.00,,,0.00,Wunderground v.1.15,2013-10-08 05:47:00,
2013-10-08 00:53:00,52.7,40.0,30.08,South,181,0.0,0.0,62,0.00,,,0.00,Wunderground v.1.15,2013-10-08 05:53:00,
2013-10-08 00:59:00,52.7,40.9,30.08,South,181,0.0,0.0,64,0.00,,,0.00,Wunderground v.1.15,2013-10-08 05:59:00,
2013-10-08 01:05:00,52.5,40.3,30.08,South,181,0.0,0.0,63,0.00,,,0.00,Wunderground v.1.15,2013-10-08 06:05:00,
2013-10-08 01:11:00,52.3,40.1,30.08,South,181,0.0,0.0,63,0.00,,,0.00,Wunderground v.1.15,2013-10-08 06:11:00,
2013-10-08 01:17:00,52.1,39.9,30.08,South,181,0.0,0.0,63,0.00,,,0.00,Wunderground v.1.15,2013-10-08 06:17:00,
2013-10-08 01:23:00,51.8,39.6,30.08,South,181,0.0,0.0,63,0.00,,,0.00,Wunderground v.1.15,2013-10-08 06:23:00,
2013-10-08 01:28:00,51.6,39.8,30.08,South,181,0.0,0.0,64,0.00,,,0.00,Wunderground v.1.15,2013-10-08 06:28:00,
2013-10-08 01:34:00,51.4,39.6,30.08,South,181,0.0,0.0,64,0.00,,,0.00,Wunderground v.1.15,2013-10-08 06:34:00,
2013-10-08 01:40:00,51.4,39.6,30.08,South,181,0.0,0.0,64,0.00,,,0.00,Wunderground v.1.15,2013-10-08 06:40:00,
2013-10-08 01:46:00,51.3,39.9,30.08,South,181,0.0,0.0,65,0.00,,,0.00,Wunderground v.1.15,2013-10-08 06:46:00,
2013-10-08 01:51:00,51.1,40.1,30.08,South,181,0.0,0.0,66,0.00,,,0.00,Wunderground v.1.15,2013-10-08 06:51:00,
2013-10-08 01:57:00,50.8,39.8,30.08,South,181,0.0,0.0,66,0.00,,,0.00,Wunderground v.1.15,2013-10-08 06:57:00,
2013-10-08 02:02:00,50.6,40.0,30.08,South,181,0.0,0.0,67,0.00,,,0.00,Wunderground v.1.15,2013-10-08 07:02:00,
2013-10-08 02:07:00,50.3,40.1,30.08,South,181,0.0,0.0,68,0.00,,,0.00,Wunderground v.1.15,2013-10-08 07:07:00,
2013-10-08 02:12:00,50.1,40.7,30.08,South,181,0.0,0.0,70,0.00,,,0.00,Wunderground v.1.15,2013-10-08 07:12:00,
2013-10-08 02:17:00,50.0,40.6,30.08,South,181,0.0,0.0,70,0.00,,,0.00,Wunderground v.1.15,2013-10-08 07:17:00,
2013-10-08 02:22:00,49.8,40.4,30.08,South,181,0.0,0.0,70,0.00,,,0.00,Wunderground v.1.15,2013-10-08 07:22:00,
2013-10-08 02:27:00,49.8,40.4,30.08,South,181,0.0,0.0,70,0.00,,,0.00,Wunderground v.1.15,2013-10-08 07:27:00,
2013-10-08 02:32:00,49.6,40.2,30.08,South,181,0.0,0.0,70,0.00,,,0.00,Wunderground v.1.15,2013-10-08 07:32:00,
2013-10-08 02:37:00,49.5,40.1,30.08,South,181,0.0,0.0,70,0.00,,,0.00,Wunderground v.1.15,2013-10-08 07:37:00,
2013-10-08 02:42:00,49.4,40.7,30.08,South,181,0.0,0.0,72,0.00,,,0.00,Wunderground v.1.15,2013-10-08 07:42:00,
2013-10-08 02:47:00,49.4,40.4,30.08,South,181,0.0,0.0,71,0.00,,,0.00,Wunderground v.1.15,2013-10-08 07:47:00,
2013-10-08 02:52:00,49.6,40.9,30.09,South,181,0.0,0.0,72,0.00,,,0.00,Wunderground v.1.15,2013-10-08 07:52:00,
2013-10-08 02:57:00,49.6,40.9,30.09,South,181,0.0,0.0,72,0.00,,,0.00,Wunderground v.1.15,2013-10-08 07:57:00,
2013-10-08 03:02:00,49.6,41.3,30.09,South,181,0.0,0.0,73,0.00,,,0.00,Wunderground v.1.15,2013-10-08 08:02:00,
2013-10-08 03:07:00,49.5,41.6,30.09,South,181,0.0,0.0,74,0.00,,,0.00,Wunderground v.1.15,2013-10-08 08:07:00,
2013-10-08 03:12:00,49.5,41.6,30.09,South,181,0.0,0.0,74,0.00,,,0.00,Wunderground v.1.15,2013-10-08 08:12:00,
2013-10-08 03:17:00,49.5,41.6,30.09,ESE,113,0.0,0.0,74,0.00,,,0.00,Wunderground v.1.15,2013-10-08 08:17:00,
2013-10-08 03:22:00,49.5,41.6,30.09,ESE,113,0.0,0.0,74,0.00,,,0.00,Wunderground v.1.15,2013-10-08 08:22:00,
2013-10-08 03:27:00,49.6,42.3,30.09,ESE,113,0.0,0.0,76,0.00,,,0.00,Wunderground v.1.15,2013-10-08 08:27:00,
2013-10-08 03:32:00,49.6,42.0,30.09,ESE,113,0.0,0.0,75,0.00,,,0.00,Wunderground v.1.15,2013-10-08 08:32:00,
2013-10-08 03:37:00,49.7,42.1,30.09,ESE,113,0.0,0.0,75,0.00,,,0.00,Wunderground v.1.15,2013-10-08 08:37:00,
2013-10-08 03:42:00,49.9,42.6,30.09,ESE,115,0.0,0.0,76,0.00,,,0.00,Wunderground v.1.15,2013-10-08 08:42:00,
2013-10-08 03:47:00,50.0,42.7,30.09,NE,38,0.0,0.0,76,0.00,,,0.00,Wunderground v.1.15,2013-10-08 08:47:00,
2013-10-08 03:52:00,50.0,42.7,30.09,SSE,166,0.0,0.0,76,0.00,,,0.00,Wunderground v.1.15,2013-10-08 08:52:00,
2013-10-08 03:57:00,50.0,42.7,30.09,SE,140,0.0,0.0,76,0.00,,,0.00,Wunderground v.1.15,2013-10-08 08:57:00,
2013-10-08 04:02:00,50.0,43.1,30.10,ESE,110,0.0,0.0,77,0.00,,,0.00,Wunderground v.1.15,2013-10-08 09:02:00,
2013-10-08 04:07:00,49.9,43.0,30.10,East,95,0.0,0.0,77,0.00,,,0.00,Wunderground v.1.15,2013-10-08 09:07:00,
2013-10-08 04:12:00,49.7,42.8,30.10,NE,37,0.0,0.0,77,0.00,,,0.00,Wunderground v.1.15,2013-10-08 09:12:00,
2013-10-08 04:17:00,49.6,42.7,30.10,ESE,123,0.0,0.0,77,0.00,,,0.00,Wunderground v.1.15,2013-10-08 09:17:00,
2013-10-08 04:22:00,49.6,42.3,30.10,ENE,78,0.0,0.0,76,0.00,,,0.00,Wunderground v.1.15,2013-10-08 09:22:00,
2013-10-08 04:27:00,49.7,42.4,30.10,SW,231,0.0,0.0,76,0.00,,,0.00,Wunderground v.1.15,2013-10-08 09:27:00,
2013-10-08 04:32:00,49.7,42.8,30.10,WNW,283,0.0,0.0,77,0.00,,,0.00,Wunderground v.1.15,2013-10-08 09:32:00,
2013-10-08 04:37:00,49.5,42.6,30.10,SW,221,0.0,0.0,77,0.00,,,0.00,Wunderground v.1.15,2013-10-08 09:37:00,
2013-10-08 04:42:00,49.5,42.2,30.10,ENE,59,0.0,0.0,76,0.00,,,0.00,Wunderground v.1.15,2013-10-08 09:42:00,
2013-10-08 04:47:00,49.4,42.5,30.10,ENE,59,0.0,0.0,77,0.00,,,0.00,Wunderground v.1.15,2013-10-08 09:47:00,
2013-10-08 04:52:00,49.2,42.3,30.10,SW,225,0.0,0.0,77,0.00,,,0.00,Wunderground v.1.15,2013-10-08 09:52:00,
2013-10-08 04:58:00,49.3,42.4,30.10,WSW,248,0.0,0.0,77,0.00,,,0.00,Wunderground v.1.15,2013-10-08 09:58:00,
2013-10-08 05:03:00,49.6,42.7,30.10,ENE,75,0.0,0.0,77,0.00,,,0.00,Wunderground v.1.15,2013-10-08 10:03:00,
2013-10-08 05:08:00,49.7,42.8,30.10,ENE,70,0.0,0.0,77,0.00,,,0.00,Wunderground v.1.15,2013-10-08 10:08:00,
2013-10-08 05:13:00,49.7,42.4,30.10,NE,46,0.0,0.0,76,0.00,,,0.00,Wunderground v.1.15,2013-10-08 10:13:00,
2013-10-08 05:18:00,49.9,42.3,30.10,NE,46,0.0,0.0,75,0.00,,,0.00,Wunderground v.1.15,2013-10-08 10:18:00,
2013-10-08 05:23:00,50.0,42.4,30.10,NE,46,0.0,0.0,75,0.00,,,0.00,Wunderground v.1.15,2013-10-08 10:23:00,
2013-10-08 05:28:00,50.0,42.4,30.10,NE,46,0.0,0.0,75,0.00,,,0.00,Wunderground v.1.15,2013-10-08 10:28:00,
2013-10-08 05:33:00,50.2,42.2,30.10,ESE,111,0.0,0.0,74,0.00,,,0.00,Wunderground v.1.15,2013-10-08 10:33:00,
2013-10-08 05:38:00,50.4,42.4,30.10,NE,51,0.0,0.0,74,0.00,,,0.00,Wunderground v.1.15,2013-10-08 10:38:00,
2013-10-08 05:43:00,50.6,42.6,30.10,ESE,106,0.0,0.0,74,0.00,,,0.00,Wunderground v.1.15,2013-10-08 10:43:00,
2013-10-08 05:48:00,50.6,42.3,30.10,SW,236,0.0,0.0,73,0.00,,,0.00,Wunderground v.1.15,2013-10-08 10:48:00,
2013-10-08 05:53:00,50.9,42.6,30.11,SW,227,0.0,0.0,73,0.00,,,0.00,Wunderground v.1.15,2013-10-08 10:53:00,
2013-10-08 05:58:00,51.2,42.5,30.10,West,265,0.0,0.0,72,0.00,,,0.00,Wunderground v.1.15,2013-10-08 10:58:00,
2013-10-08 06:03:00,51.2,42.5,30.10,ENE,74,0.0,0.0,72,0.00,,,0.00,Wunderground v.1.15,2013-10-08 11:03:00,
2013-10-08 06:08:00,51.2,42.5,30.10,SSW,201,0.0,0.0,72,0.00,,,0.00,Wunderground v.1.15,2013-10-08 11:08:00,
2013-10-08 06:13:00,51.4,42.7,30.11,SE,138,0.0,0.0,72,0.00,,,0.00,Wunderground v.1.15,2013-10-08 11:13:00,
2013-10-08 06:18:00,51.3,42.9,30.11,SE,138,0.0,0.0,73,0.00,,,0.00,Wunderground v.1.15,2013-10-08 11:18:00,
2013-10-08 06:23:00,51.1,42.7,30.11,East,84,0.0,0.0,73,0.00,,,0.00,Wunderground v.1.15,2013-10-08 11:23:00,
2013-10-08 06:28:00,50.9,43.3,30.11,South,190,0.0,0.0,75,0.00,,,0.00,Wunderground v.1.15,2013-10-08 11:28:00,
2013-10-08 06:33:00,50.7,43.1,30.11,SW,227,0.0,0.0,75,0.00,,,0.00,Wunderground v.1.15,2013-10-08 11:33:00,
2013-10-08 06:38:00,50.6,43.0,30.11,South,175,0.0,0.0,75,0.00,,,0.00,Wunderground v.1.15,2013-10-08 11:38:00,
2013-10-08 06:43:00,50.3,43.0,30.11,South,169,0.0,0.0,76,0.00,,,0.00,Wunderground v.1.15,2013-10-08 11:43:00,
2013-10-08 06:48:00,50.2,42.9,30.11,South,170,0.0,0.0,76,0.00,,,0.00,Wunderground v.1.15,2013-10-08 11:48:00,
2013-10-08 06:53:00,50.1,42.8,30.11,SW,226,0.0,0.0,76,0.00,,,0.00,Wunderground v.1.15,2013-10-08 11:53:00,
2013-10-08 06:58:00,50.3,43.0,30.11,South,188,0.0,0.0,76,0.00,,,0.00,Wunderground v.1.15,2013-10-08 11:58:00,
2013-10-08 07:03:00,50.5,42.9,30.11,ENE,64,0.0,0.0,75,0.00,,,0.00,Wunderground v.1.15,2013-10-08 12:03:00,
2013-10-08 07:08:00,51.1,42.7,30.11,SE,137,0.0,0.0,73,0.00,,,0.00,Wunderground v.1.15,2013-10-08 12:08:00,
2013-10-08 07:13:00,51.5,43.1,30.11,East,96,0.0,0.0,73,0.00,,,0.00,Wunderground v.1.15,2013-10-08 12:13:00,
2013-10-08 07:18:00,51.8,42.7,30.11,SSE,160,0.0,0.0,71,0.00,,,0.00,Wunderground v.1.15,2013-10-08 12:18:00,
2013-10-08 07:23:00,52.2,42.7,30.11,NNE,30,0.0,0.0,70,0.00,,,0.00,Wunderground v.1.15,2013-10-08 12:23:00,
2013-10-08 07:28:00,52.6,43.1,30.12,WSW,248,0.0,0.0,70,0.00,,,0.00,Wunderground v.1.15,2013-10-08 12:28:00,
2013-10-08 07:33:00,52.7,42.8,30.12,SE,146,0.0,0.0,69,0.00,,,0.00,Wunderground v.1.15,2013-10-08 12:33:00,
2013-10-08 07:38:00,52.7,42.8,30.12,SE,138,0.0,0.0,69,0.00,,,0.00,Wunderground v.1.15,2013-10-08 12:38:00,
2013-10-08 07:44:00,52.8,42.5,30.12,SW,231,0.0,0.0,68,0.00,,,0.00,Wunderground v.1.15,2013-10-08 12:44:00,
2013-10-08 07:49:00,53.0,42.7,30.12,SSW,192,0.0,0.0,68,0.00,,,0.00,Wunderground v.1.15,2013-10-08 12:49:00,
2013-10-08 07:54:00,53.2,43.7,30.12,South,186,0.0,0.0,70,0.00,,,0.00,Wunderground v.1.15,2013-10-08 12:54:00,
2013-10-08 07:59:00,53.3,43.4,30.12,SSE,168,0.0,0.0,69,0.00,,,0.00,Wunderground v.1.15,2013-10-08 12:59:00,
2013-10-08 08:04:00,53.4,43.1,30.13,SSE,168,0.0,0.0,68,0.00,,,0.00,Wunderground v.1.15,2013-10-08 13:04:00,
2013-10-08 08:09:00,53.6,43.3,30.13,ESE,117,0.0,0.0,68,0.00,,,0.00,Wunderground v.1.15,2013-10-08 13:09:00,
2013-10-08 08:14:00,54.0,43.7,30.13,ENE,75,0.0,0.0,68,0.00,,,0.00,Wunderground v.1.15,2013-10-08 13:14:00,
2013-10-08 08:19:00,54.2,43.1,30.13,SSW,196,0.0,0.0,66,0.00,,,0.00,Wunderground v.1.15,2013-10-08 13:19:00,
2013-10-08 08:24:00,54.2,44.6,30.13,SSE,165,0.0,0.0,70,0.00,,,0.00,Wunderground v.1.15,2013-10-08 13:24:00,
2013-10-08 08:29:00,54.0,44.1,30.13,SE,130,0.0,0.0,69,0.00,,,0.00,Wunderground v.1.15,2013-10-08 13:29:00,
2013-10-08 08:34:00,53.9,43.6,30.13,SW,219,0.0,0.0,68,0.00,,,0.00,Wunderground v.1.15,2013-10-08 13:34:00,
2013-10-08 08:39:00,54.0,44.4,30.13,North,5,0.0,0.0,70,0.00,,,0.00,Wunderground v.1.15,2013-10-08 13:39:00,
2013-10-08 08:44:00,54.1,44.2,30.13,South,180,0.0,0.0,69,0.00,,,0.00,Wunderground v.1.15,2013-10-08 13:44:00,
2013-10-08 08:49:00,54.1,44.5,30.13,South,186,0.0,0.0,70,0.00,,,0.00,Wunderground v.1.15,2013-10-08 13:49:00,
2013-10-08 08:54:00,54.0,44.1,30.13,SSW,201,0.0,0.0,69,0.00,,,0.00,Wunderground v.1.15,2013-10-08 13:54:00,
2013-10-08 08:59:00,54.1,44.2,30.13,NNW,335,0.0,0.0,69,0.00,,,0.00,Wunderground v.1.15,2013-10-08 13:59:00,
2013-10-08 09:04:00,54.4,44.8,30.13,NNE,26,0.0,0.0,70,0.00,,,0.00,Wunderground v.1.15,2013-10-08 14:04:00,
2013-10-08 09:09:00,54.6,44.6,30.12,SSW,203,0.0,0.0,69,0.00,,,0.00,Wunderground v.1.15,2013-10-08 14:09:00,
2013-10-08 09:14:00,54.7,45.8,30.12,SSW,200,0.0,0.0,72,0.00,,,0.00,Wunderground v.1.15,2013-10-08 14:14:00,
2013-10-08 09:19:00,54.7,45.8,30.12,South,181,0.0,0.0,72,0.00,,,0.00,Wunderground v.1.15,2013-10-08 14:19:00,
2013-10-08 09:24:00,54.6,45.8,30.12,South,188,0.0,0.0,72,0.00,,,0.00,Wunderground v.1.15,2013-10-08 14:24:00,
2013-10-08 09:29:00,54.7,45.8,30.12,SSE,149,0.0,0.0,72,0.00,,,0.00,Wunderground v.1.15,2013-10-08 14:29:00,
2013-10-08 09:34:00,55.1,45.9,30.12,South,176,0.0,0.0,71,0.00,,,0.00,Wunderground v.1.15,2013-10-08 14:34:00,
2013-10-08 09:39:00,55.7,46.4,30.12,SSE,157,0.0,0.0,71,0.00,,,0.00,Wunderground v.1.15,2013-10-08 14:39:00,
2013-10-08 09:44:00,56.2,46.2,30.12,South,188,0.0,0.0,69,0.00,,,0.00,Wunderground v.1.15,2013-10-08 14:44:00,
2013-10-08 09:49:00,56.7,47.0,30.12,South,182,0.0,0.0,70,0.00,,,0.00,Wunderground v.1.15,2013-10-08 14:49:00,
2013-10-08 09:54:00,57.1,47.4,30.12,South,172,0.0,0.0,70,0.00,,,0.00,Wunderground v.1.15,2013-10-08 14:54:00,
2013-10-08 09:59:00,57.5,47.4,30.12,SSE,154,0.0,0.0,69,0.00,,,0.00,Wunderground v.1.15,2013-10-08 14:59:00,
2013-10-08 10:04:00,57.7,48.4,30.11,South,180,0.0,0.0,71,0.00,,,0.00,Wunderground v.1.15,2013-10-08 15:04:00,
2013-10-08 10:09:00,58.1,48.0,30.11,SSW,208,0.0,0.0,69,0.00,,,0.00,Wunderground v.1.15,2013-10-08 15:09:00,
2013-10-08 10:14:00,58.2,48.5,30.11,SSE,162,0.0,0.0,70,0.00,,,0.00,Wunderground v.1.15,2013-10-08 15:14:00,
2013-10-08 10:19:00,58.2,48.1,30.11,South,188,0.0,0.0,69,0.00,,,0.00,Wunderground v.1.15,2013-10-08 15:19:00,
2013-10-08 10:24:00,58.4,48.3,30.12,South,176,0.0,0.0,69,0.00,,,0.00,Wunderground v.1.15,2013-10-08 15:24:00,
2013-10-08 10:29:00,58.6,48.1,30.12,South,180,0.0,0.0,68,0.00,,,0.00,Wunderground v.1.15,2013-10-08 15:29:00,
2013-10-08 10:34:00,58.8,49.0,30.12,SSW,211,0.0,0.0,70,0.00,,,0.00,Wunderground v.1.15,2013-10-08 15:34:00,
2013-10-08 10:39:00,59.3,49.1,30.12,SSE,155,0.0,0.0,69,0.00,,,0.00,Wunderground v.1.15,2013-10-08 15:39:00,
2013-10-08 10:44:00,59.7,49.5,30.11,SSW,207,0.0,0.0,69,0.00,,,0.00,Wunderground v.1.15,2013-10-08 15:44:00,
2013-10-08 10:49:00,60.3,50.1,30.11,ESE,120,0.0,0.0,69,0.00,,,0.00,Wunderground v.1.15,2013-10-08 15:49:00,
2013-10-08 10:54:00,60.7,49.7,30.11,SSW,207,0.0,0.0,67,0.00,,,0.00,Wunderground v.1.15,2013-10-08 15:54:00,
2013-10-08 10:59:00,61.2,49.7,30.11,NNE,26,0.0,0.0,66,0.00,,,0.00,Wunderground v.1.15,2013-10-08 15:59:00,
2013-10-08 11:04:00,61.7,49.8,30.11,SSE,168,0.0,0.0,65,0.00,,,0.00,Wunderground v.1.15,2013-10-08 16:04:00,
2013-10-08 11:09:00,62.0,50.1,30.11,South,183,0.0,0.0,65,0.00,,,0.00,Wunderground v.1.15,2013-10-08 16:09:00,
2013-10-08 11:14:00,62.7,51.2,30.11,SSW,194,0.0,0.0,66,0.00,,,0.00,Wunderground v.1.15,2013-10-08 16:14:00,
2013-10-08 11:19:00,63.0,50.2,30.11,SSW,198,0.0,0.0,63,0.00,,,0.00,Wunderground v.1.15,2013-10-08 16:19:00,
2013-10-08 11:24:00,63.4,51.0,30.11,ENE,76,0.0,0.0,64,0.00,,,0.00,Wunderground v.1.15,2013-10-08 16:24:00,
2013-10-08 11:29:00,64.1,50.8,30.11,SSW,206,0.0,0.0,62,0.00,,,0.00,Wunderground v.1.15,2013-10-08 16:29:00,
2013-10-08 11:34:00,64.5,50.7,30.11,SSW,196,0.0,0.0,61,0.00,,,0.00,Wunderground v.1.15,2013-10-08 16:34:00,
2013-10-08 11:39:00,64.8,50.6,30.11,SSW,193,0.0,0.0,60,0.00,,,0.00,Wunderground v.1.15,2013-10-08 16:39:00,
2013-10-08 11:44:00,64.9,51.1,30.11,SE,132,0.0,0.0,61,0.00,,,0.00,Wunderground v.1.15,2013-10-08 16:44:00,
2013-10-08 11:49:00,65.5,50.3,30.11,ESE,108,0.0,0.0,58,0.00,,,0.00,Wunderground v.1.15,2013-10-08 16:49:00,
2013-10-08 11:54:00,65.8,50.6,30.11,SSW,202,0.0,0.0,58,0.00,,,0.00,Wunderground v.1.15,2013-10-08 16:54:00,
2013-10-08 11:59:00,66.2,50.5,30.11,SE,143,0.0,0.0,57,0.00,,,0.00,Wunderground v.1.15,2013-10-08 16:59:00,
2013-10-08 12:04:00,66.6,51.4,30.11,SE,138,0.0,0.0,58,0.00,,,0.00,Wunderground v.1.15,2013-10-08 17:04:00,
2013-10-08 12:09:00,67.0,51.3,30.11,SSE,155,0.0,0.0,57,0.00,,,0.00,Wunderground v.1.15,2013-10-08 17:09:00,
2013-10-08 12:14:00,67.5,50.3,30.11,SE,139,0.0,0.0,54,0.00,,,0.00,Wunderground v.1.15,2013-10-08 17:14:00,
2013-10-08 12:19:00,67.6,50.4,30.11,South,190,0.0,0.0,54,0.00,,,0.00,Wunderground v.1.15,2013-10-08 17:19:00,
2013-10-08 12:24:00,67.7,49.9,30.11,South,186,0.0,0.0,53,0.00,,,0.00,Wunderground v.1.15,2013-10-08 17:24:00,
2013-10-08 12:29:00,67.9,51.1,30.11,SSE,158,0.0,0.0,55,0.00,,,0.00,Wunderground v.1.15,2013-10-08 17:29:00,
2013-10-08 12:34:00,68.2,49.9,30.10,SSE,165,0.0,0.0,52,0.00,,,0.00,Wunderground v.1.15,2013-10-08 17:34:00,
2013-10-08 12:39:00,68.3,49.5,30.10,South,174,0.0,0.0,51,0.00,,,0.00,Wunderground v.1.15,2013-10-08 17:39:00,
2013-10-08 12:44:00,68.7,50.4,30.10,SSE,163,0.0,0.0,52,0.00,,,0.00,Wunderground v.1.15,2013-10-08 17:44:00,
2013-10-08 12:49:00,69.0,49.0,30.10,South,172,0.0,0.0,49,0.00,,,0.00,Wunderground v.1.15,2013-10-08 17:49:00,
2013-10-08 12:54:00,69.3,49.9,30.10,SW,227,0.0,0.0,50,0.00,,,0.00,Wunderground v.1.15,2013-10-08 17:54:00,
2013-10-08 12:59:00,69.7,49.1,30.10,SE,140,0.0,0.0,48,0.00,,,0.00,Wunderground v.1.15,2013-10-08 17:59:00,
2013-10-08 13:04:00,70.1,50.0,30.09,ENE,63,0.0,0.0,49,0.00,,,0.00,Wunderground v.1.15,2013-10-08 18:04:00,
2013-10-08 13:09:00,70.4,51.4,30.09,South,179,0.0,0.0,51,0.00,,,0.00,Wunderground v.1.15,2013-10-08 18:09:00,
2013-10-08 13:14:00,70.6,48.8,30.09,East,95,0.0,0.0,46,0.00,,,0.00,Wunderground v.1.15,2013-10-08 18:14:00,
2013-10-08 13:19:00,70.5,48.7,30.09,SSW,205,0.0,0.0,46,0.00,,,0.00,Wunderground v.1.15,2013-10-08 18:19:00,
2013-10-08 13:24:00,70.8,49.6,30.08,SSE,166,0.0,0.0,47,0.00,,,0.00,Wunderground v.1.15,2013-10-08 18:24:00,
2013-10-08 13:29:00,70.9,48.5,30.08,SSE,151,0.0,0.0,45,0.00,,,0.00,Wunderground v.1.15,2013-10-08 18:29:00,
2013-10-08 13:34:00,70.6,49.4,30.08,SW,230,0.0,0.0,47,0.00,,,0.00,Wunderground v.1.15,2013-10-08 18:34:00,
2013-10-08 13:39:00,70.6,48.8,30.08,South,174,0.0,0.0,46,0.00,,,0.00,Wunderground v.1.15,2013-10-08 18:39:00,
2013-10-08 13:44:00,70.4,49.2,30.08,East,98,0.0,0.0,47,0.00,,,0.00,Wunderground v.1.15,2013-10-08 18:44:00,
2013-10-08 13:49:00,70.4,49.2,30.08,SSE,159,0.0,0.0,47,0.00,,,0.00,Wunderground v.1.15,2013-10-08 18:49:00,
2013-10-08 13:54:00,70.5,48.7,30.08,SSE,155,0.0,0.0,46,0.00,,,0.00,Wunderground v.1.15,2013-10-08 18:54:00,
2013-10-08 14:00:00,70.5,49.3,30.08,SSE,167,0.0,0.0,47,0.00,,,0.00,Wunderground v.1.15,2013-10-08 19:00:00,
2013-10-08 14:05:00,70.4,49.2,30.08,ESE,113,0.0,0.0,47,0.00,,,0.00,Wunderground v.1.15,2013-10-08 19:05:00,
2013-10-08 14:10:00,70.4,49.8,30.07,South,179,0.0,0.0,48,0.00,,,0.00,Wunderground v.1.15,2013-10-08 19:10:00,
2013-10-08 14:15:00,70.8,50.1,30.07,East,94,0.0,0.0,48,0.00,,,0.00,Wunderground v.1.15,2013-10-08 19:15:00,
2013-10-08 14:20:00,71.1,49.8,30.07,NNE,15,0.0,0.0,47,0.00,,,0.00,Wunderground v.1.15,2013-10-08 19:20:00,
2013-10-08 14:25:00,71.3,48.3,30.07,SSW,192,0.0,0.0,44,0.00,,,0.00,Wunderground v.1.15,2013-10-08 19:25:00,
2013-10-08 14:30:00,71.2,48.8,30.07,SSW,192,0.0,0.0,45,0.00,,,0.00,Wunderground v.1.15,2013-10-08 19:30:00,
2013-10-08 14:35:00,71.3,48.3,30.07,ESE,117,0.0,0.0,44,0.00,,,0.00,Wunderground v.1.15,2013-10-08 19:35:00,
2013-10-08 14:40:00,71.5,49.0,30.07,SSW,202,0.0,0.0,45,0.00,,,0.00,Wunderground v.1.15,2013-10-08 19:40:00,
2013-10-08 14:45:00,71.9,48.2,30.07,WNW,287,0.0,0.0,43,0.00,,,0.00,Wunderground v.1.15,2013-10-08 19:45:00,
2013-10-08 14:50:00,72.0,48.9,30.07,ESE,119,0.0,0.0,44,0.00,,,0.00,Wunderground v.1.15,2013-10-08 19:50:00,
2013-10-08 14:55:00,71.9,46.9,30.07,SW,228,0.0,0.0,41,0.00,,,0.00,Wunderground v.1.15,2013-10-08 19:55:00,
2013-10-08 15:00:00,71.8,46.8,30.07,SSW,198,0.0,0.0,41,0.00,,,0.00,Wunderground v.1.15,2013-10-08 20:00:00,
2013-10-08 15:05:00,71.9,46.9,30.07,WSW,254,0.0,0.0,41,0.00,,,0.00,Wunderground v.1.15,2013-10-08 20:05:00,
2013-10-08 15:10:00,71.9,48.2,30.07,WSW,245,0.0,0.0,43,0.00,,,0.00,Wunderground v.1.15,2013-10-08 20:10:00,
2013-10-08 15:15:00,72.2,47.2,30.07,West,281,0.0,0.0,41,0.00,,,0.00,Wunderground v.1.15,2013-10-08 20:15:00,
2013-10-08 15:20:00,71.8,46.8,30.07,South,174,0.0,0.0,41,0.00,,,0.00,Wunderground v.1.15,2013-10-08 20:20:00,
2013-10-08 15:25:00,71.9,46.3,30.07,South,181,0.0,0.0,40,0.00,,,0.00,Wunderground v.1.15,2013-10-08 20:25:00,
2013-10-08 15:30:00,71.9,46.3,30.07,SW,221,0.0,0.0,40,0.00,,,0.00,Wunderground v.1.15,2013-10-08 20:30:00,
2013-10-08 15:35:00,71.7,46.1,30.07,WSW,258,0.0,0.0,40,0.00,,,0.00,Wunderground v.1.15,2013-10-08 20:35:00,
2013-10-08 15:40:00,71.6,46.0,30.07,SSW,207,0.0,0.0,40,0.00,,,0.00,Wunderground v.1.15,2013-10-08 20:40:00,
2013-10-08 15:45:00,71.5,47.2,30.07,South,179,0.0,0.0,42,0.00,,,0.00,Wunderground v.1.15,2013-10-08 20:45:00,
2013-10-08 15:50:00,71.6,47.3,30.07,South,180,0.0,0.0,42,0.00,,,0.00,Wunderground v.1.15,2013-10-08 20:50:00,
2013-10-08 15:55:00,71.8,46.8,30.06,South,182,0.0,0.0,41,0.00,,,0.00,Wunderground v.1.15,2013-10-08 20:55:00,
2013-10-08 16:00:00,71.8,46.2,30.07,SSE,151,0.0,0.0,40,0.00,,,0.00,Wunderground v.1.15,2013-10-08 21:00:00,
2013-10-08 16:05:00,72.1,46.4,30.06,SSW,197,0.0,0.0,40,0.00,,,0.00,Wunderground v.1.15,2013-10-08 21:05:00,
2013-10-08 16:10:00,72.4,47.4,30.06,South,170,0.0,0.0,41,0.00,,,0.00,Wunderground v.1.15,2013-10-08 21:10:00,
2013-10-08 16:15:00,72.0,48.3,30.06,South,188,0.0,0.0,43,0.00,,,0.00,Wunderground v.1.15,2013-10-08 21:15:00,
2013-10-08 16:20:00,71.5,47.2,30.06,South,183,0.0,0.0,42,0.00,,,0.00,Wunderground v.1.15,2013-10-08 21:20:00,
2013-10-08 16:26:00,71.2,47.6,30.06,SE,139,0.0,0.0,43,0.00,,,0.00,Wunderground v.1.15,2013-10-08 21:26:00,
2013-10-08 16:31:00,70.8,47.8,30.06,SSW,194,0.0,0.0,44,0.00,,,0.00,Wunderground v.1.15,2013-10-08 21:31:00,
2013-10-08 16:36:00,70.5,46.9,30.06,WSW,252,0.0,0.0,43,0.00,,,0.00,Wunderground v.1.15,2013-10-08 21:36:00,
2013-10-08 16:41:00,70.1,47.2,30.06,SSE,156,0.0,0.0,44,0.00,,,0.00,Wunderground v.1.15,2013-10-08 21:41:00,
2013-10-08 16:46:00,70.1,47.2,30.06,South,179,0.0,0.0,44,0.00,,,0.00,Wunderground v.1.15,2013-10-08 21:46:00,
2013-10-08 16:51:00,70.1,47.2,30.06,SSW,200,0.0,0.0,44,0.00,,,0.00,Wunderground v.1.15,2013-10-08 21:51:00,
2013-10-08 16:56:00,70.2,47.9,30.06,SSE,157,0.0,0.0,45,0.00,,,0.00,Wunderground v.1.15,2013-10-08 21:56:00,
2013-10-08 17:01:00,70.2,47.3,30.06,South,183,0.0,0.0,44,0.00,,,0.00,Wunderground v.1.15,2013-10-08 22:01:00,
2013-10-08 17:06:00,70.0,48.3,30.06,South,181,0.0,0.0,46,0.00,,,0.00,Wunderground v.1.15,2013-10-08 22:06:00,
2013-10-08 17:11:00,69.7,48.0,30.06,SE,128,0.0,0.0,46,0.00,,,0.00,Wunderground v.1.15,2013-10-08 22:11:00,
2013-10-08 17:16:00,69.3,48.8,30.06,SW,223,0.0,0.0,48,0.00,,,0.00,Wunderground v.1.15,2013-10-08 22:16:00,
2013-10-08 17:21:00,68.8,48.3,30.05,North,351,0.0,0.0,48,0.00,,,0.00,Wunderground v.1.15,2013-10-08 22:21:00,
2013-10-08 17:26:00,68.4,47.9,30.05,East,91,0.0,0.0,48,0.00,,,0.00,Wunderground v.1.15,2013-10-08 22:26:00,
2013-10-08 17:31:00,67.9,48.6,30.05,NNW,336,0.0,0.0,50,0.00,,,0.00,Wunderground v.1.15,2013-10-08 22:31:00,
2013-10-08 17:36:00,67.4,48.1,30.05,SW,215,0.0,0.0,50,0.00,,,0.00,Wunderground v.1.15,2013-10-08 22:36:00,
2013-10-08 17:41:00,67.1,47.8,30.05,NE,51,0.0,0.0,50,0.00,,,0.00,Wunderground v.1.15,2013-10-08 22:41:00,
2013-10-08 17:46:00,66.9,47.6,30.05,ENE,69,0.0,0.0,50,0.00,,,0.00,Wunderground v.1.15,2013-10-08 22:46:00,
2013-10-08 17:51:00,66.8,48.1,30.05,SW,218,0.0,0.0,51,0.00,,,0.00,Wunderground v.1.15,2013-10-08 22:51:00,
2013-10-08 17:56:00,66.7,48.0,30.06,SW,229,0.0,0.0,51,0.00,,,0.00,Wunderground v.1.15,2013-10-08 22:56:00,
2013-10-08 18:01:00,66.6,47.9,30.06,SSE,163,0.0,0.0,51,0.00,,,0.00,Wunderground v.1.15,2013-10-08 23:01:00,
2013-10-08 18:06:00,66.6,47.9,30.05,NE,52,0.0,0.0,51,0.00,,,0.00,Wunderground v.1.15,2013-10-08 23:06:00,
2013-10-08 18:11:00,66.4,48.2,30.05,ENE,78,0.0,0.0,52,0.00,,,0.00,Wunderground v.1.15,2013-10-08 23:11:00,
2013-10-08 18:16:00,66.1,48.0,30.06,SSW,204,0.0,0.0,52,0.00,,,0.00,Wunderground v.1.15,2013-10-08 23:16:00,
2013-10-08 18:21:00,65.8,48.2,30.05,SSE,165,0.0,0.0,53,0.00,,,0.00,Wunderground v.1.15,2013-10-08 23:21:00,
2013-10-08 18:26:00,65.5,47.9,30.05,North,355,0.0,0.0,53,0.00,,,0.00,Wunderground v.1.15,2013-10-08 23:26:00,
2013-10-08 18:31:00,65.3,47.7,30.05,NE,54,0.0,0.0,53,0.00,,,0.00,Wunderground v.1.15,2013-10-08 23:31:00,
2013-10-08 18:36:00,65.0,47.4,30.05,ENE,62,0.0,0.0,53,0.00,,,0.00,Wunderground v.1.15,2013-10-08 23:36:00,
2013-10-08 18:41:00,64.9,47.4,30.06,ESE,111,0.0,0.0,53,0.00,,,0.00,Wunderground v.1.15,2013-10-08 23:41:00,
2013-10-08 18:46:00,64.7,47.2,30.06,NE,45,0.0,0.0,53,0.00,,,0.00,Wunderground v.1.15,2013-10-08 23:46:00,
2013-10-08 18:51:00,64.6,47.1,30.06,ENE,71,0.0,0.0,53,0.00,,,0.00,Wunderground v.1.15,2013-10-08 23:51:00,
2013-10-08 18:57:00,64.4,47.4,30.06,West,260,0.0,0.0,54,0.00,,,0.00,Wunderground v.1.15,2013-10-08 23:57:00,
2013-10-08 19:02:00,64.3,47.3,30.06,SSE,153,0.0,0.0,54,0.00,,,0.00,Wunderground v.1.15,2013-10-09 00:02:00,
2013-10-08 19:07:00,64.2,47.2,30.06,North,5,0.0,0.0,54,0.00,,,0.00,Wunderground v.1.15,2013-10-09 00:07:00,
2013-10-08 19:12:00,64.1,47.1,30.06,West,275,0.0,0.0,54,0.00,,,0.00,Wunderground v.1.15,2013-10-09 00:12:00,
2013-10-08 19:17:00,64.1,46.6,30.06,ESE,110,0.0,0.0,53,0.00,,,0.00,Wunderground v.1.15,2013-10-09 00:17:00,
2013-10-08 19:22:00,64.0,46.5,30.06,SSE,150,0.0,0.0,53,0.00,,,0.00,Wunderground v.1.15,2013-10-09 00:22:00,
2013-10-08 19:27:00,63.9,46.4,30.06,ESE,115,0.0,0.0,53,0.00,,,0.00,Wunderground v.1.15,2013-10-09 00:27:00,
2013-10-08 19:32:00,63.8,46.8,30.06,SW,219,0.0,0.0,54,0.00,,,0.00,Wunderground v.1.15,2013-10-09 00:32:00,
2013-10-08 19:37:00,63.6,46.1,30.06,SSE,155,0.0,0.0,53,0.00,,,0.00,Wunderground v.1.15,2013-10-09 00:37:00,
2013-10-08 19:42:00,63.5,46.1,30.07,SE,132,0.0,0.0,53,0.00,,,0.00,Wunderground v.1.15,2013-10-09 00:42:00,
2013-10-08 19:47:00,63.4,46.0,30.06,NE,39,0.0,0.0,53,0.00,,,0.00,Wunderground v.1.15,2013-10-09 00:47:00,
2013-10-08 19:52:00,63.3,45.9,30.06,SW,225,0.0,0.0,53,0.00,,,0.00,Wunderground v.1.15,2013-10-09 00:52:00,
2013-10-08 19:57:00,63.2,45.8,30.06,SE,134,0.0,0.0,53,0.00,,,0.00,Wunderground v.1.15,2013-10-09 00:57:00,
2013-10-08 20:02:00,63.1,46.2,30.07,ESE,117,0.0,0.0,54,0.00,,,0.00,Wunderground v.1.15,2013-10-09 01:02:00,
2013-10-08 20:07:00,62.9,46.0,30.07,ENE,57,0.0,0.0,54,0.00,,,0.00,Wunderground v.1.15,2013-10-09 01:07:00,
2013-10-08 20:12:00,62.7,46.3,30.07,North,5,0.0,0.0,55,0.00,,,0.00,Wunderground v.1.15,2013-10-09 01:12:00,
2013-10-08 20:17:00,62.5,46.1,30.07,North,5,0.0,0.0,55,0.00,,,0.00,Wunderground v.1.15,2013-10-09 01:17:00,
2013-10-08 20:22:00,62.2,45.8,30.07,ESE,107,0.0,0.0,55,0.00,,,0.00,Wunderground v.1.15,2013-10-09 01:22:00,
2013-10-08 20:27:00,62.0,46.1,30.07,SE,134,0.0,0.0,56,0.00,,,0.00,Wunderground v.1.15,2013-10-09 01:27:00,
2013-10-08 20:32:00,62.0,46.6,30.07,NNW,327,0.0,0.0,57,0.00,,,0.00,Wunderground v.1.15,2013-10-09 01:32:00,
2013-10-08 20:37:00,62.0,46.1,30.07,NNW,332,0.0,0.0,56,0.00,,,0.00,Wunderground v.1.15,2013-10-09 01:37:00,
2013-10-08 20:42:00,61.9,46.5,30.07,ENE,61,0.0,0.0,57,0.00,,,0.00,Wunderground v.1.15,2013-10-09 01:42:00,
2013-10-08 20:47:00,61.9,46.5,30.07,WNW,302,0.0,0.0,57,0.00,,,0.00,Wunderground v.1.15,2013-10-09 01:47:00,
2013-10-08 20:52:00,61.9,46.5,30.07,SSW,205,0.0,0.0,57,0.00,,,0.00,Wunderground v.1.15,2013-10-09 01:52:00,
2013-10-08 20:57:00,61.8,46.9,30.07,NNW,347,0.0,0.0,58,0.00,,,0.00,Wunderground v.1.15,2013-10-09 01:57:00,
2013-10-08 21:02:00,61.7,46.3,30.07,South,169,0.0,0.0,57,0.00,,,0.00,Wunderground v.1.15,2013-10-09 02:02:00,
2013-10-08 21:07:00,61.7,46.8,30.07,NNW,336,0.0,0.0,58,0.00,,,0.00,Wunderground v.1.15,2013-10-09 02:07:00,
2013-10-08 21:12:00,61.7,46.8,30.07,SE,128,0.0,0.0,58,0.00,,,0.00,Wunderground v.1.15,2013-10-09 02:12:00,
2013-10-08 21:17:00,61.7,46.8,30.07,SW,218,0.0,0.0,58,0.00,,,0.00,Wunderground v.1.15,2013-10-09 02:17:00,
2013-10-08 21:22:00,61.7,46.8,30.07,NNE,15,0.0,0.0,58,0.00,,,0.00,Wunderground v.1.15,2013-10-09 02:22:00,
2013-10-08 21:27:00,61.6,46.7,30.07,ESE,117,0.0,0.0,58,0.00,,,0.00,Wunderground v.1.15,2013-10-09 02:27:00,
2013-10-08 21:32:00,61.5,47.0,30.07,NE,53,0.0,0.0,59,0.00,,,0.00,Wunderground v.1.15,2013-10-09 02:32:00,
2013-10-08 21:37:00,61.4,46.5,30.07,SE,137,0.0,0.0,58,0.00,,,0.00,Wunderground v.1.15,2013-10-09 02:37:00,
2013-10-08 21:42:00,61.4,46.9,30.07,ESE,105,0.0,0.0,59,0.00,,,0.00,Wunderground v.1.15,2013-10-09 02:42:00,
2013-10-08 21:47:00,61.2,46.8,30.08,SE,146,0.0,0.0,59,0.00,,,0.00,Wunderground v.1.15,2013-10-09 02:47:00,
2013-10-08 21:52:00,61.1,46.7,30.08,SSE,156,0.0,0.0,59,0.00,,,0.00,Wunderground v.1.15,2013-10-09 02:52:00,
2013-10-08 21:57:00,61.0,47.0,30.08,SSW,194,0.0,0.0,60,0.00,,,0.00,Wunderground v.1.15,2013-10-09 02:57:00,
2013-10-08 22:02:00,61.0,47.0,30.08,NNW,346,0.0,0.0,60,0.00,,,0.00,Wunderground v.1.15,2013-10-09 03:02:00,
2013-10-08 22:07:00,60.9,46.9,30.08,NNE,32,0.0,0.0,60,0.00,,,0.00,Wunderground v.1.15,2013-10-09 03:07:00,
2013-10-08 22:12:00,60.8,46.8,30.08,SSW,210,0.0,0.0,60,0.00,,,0.00,Wunderground v.1.15,2013-10-09 03:12:00,
2013-10-08 22:17:00,60.7,46.7,30.08,SSE,161,0.0,0.0,60,0.00,,,0.00,Wunderground v.1.15,2013-10-09 03:17:00,
2013-10-08 22:22:00,60.6,47.1,30.08,SSE,168,0.0,0.0,61,0.00,,,0.00,Wunderground v.1.15,2013-10-09 03:22:00,
2013-10-08 22:27:00,60.5,47.0,30.08,South,175,0.0,0.0,61,0.00,,,0.00,Wunderground v.1.15,2013-10-09 03:27:00,
2013-10-08 22:32:00,60.3,46.8,30.09,SW,215,0.0,0.0,61,0.00,,,0.00,Wunderground v.1.15,2013-10-09 03:32:00,
2013-10-08 22:37:00,60.1,47.0,30.08,ESE,114,0.0,0.0,62,0.00,,,0.00,Wunderground v.1.15,2013-10-09 03:37:00,
2013-10-08 22:42:00,60.0,46.9,30.09,SSE,158,0.0,0.0,62,0.00,,,0.00,Wunderground v.1.15,2013-10-09 03:42:00,
2013-10-08 22:47:00,60.0,46.9,30.09,South,187,0.0,0.0,62,0.00,,,0.00,Wunderground v.1.15,2013-10-09 03:47:00,
2013-10-08 22:52:00,60.0,46.9,30.09,NE,44,0.0,0.0,62,0.00,,,0.00,Wunderground v.1.15,2013-10-09 03:52:00,
2013-10-08 22:57:00,60.0,47.4,30.09,SSE,153,0.0,0.0,63,0.00,,,0.00,Wunderground v.1.15,2013-10-09 03:57:00,
2013-10-08 23:01:00,59.9,47.3,30.09,WSW,238,0.0,0.0,63,0.00,,,0.00,Wunderground v.1.15,2013-10-09 04:01:00,
2013-10-08 23:06:00,59.8,47.2,30.08,SSE,167,0.0,0.0,63,0.00,,,0.00,Wunderground v.1.15,2013-10-09 04:06:00,
2013-10-08 23:11:00,59.7,47.1,30.09,SSW,209,0.0,0.0,63,0.00,,,0.00,Wunderground v.1.15,2013-10-09 04:11:00,
2013-10-08 23:16:00,59.6,47.0,30.08,South,177,0.0,0.0,63,0.00,,,0.00,Wunderground v.1.15,2013-10-09 04:16:00,
2013-10-08 23:21:00,59.5,46.9,30.08,ENE,73,0.0,0.0,63,0.00,,,0.00,Wunderground v.1.15,2013-10-09 04:21:00,
2013-10-08 23:26:00,59.5,47.3,30.08,SSE,152,0.0,0.0,64,0.00,,,0.00,Wunderground v.1.15,2013-10-09 04:26:00,
2013-10-08 23:31:00,59.5,47.3,30.08,SSW,204,0.0,0.0,64,0.00,,,0.00,Wunderground v.1.15,2013-10-09 04:31:00,
2013-10-08 23:36:00,59.5,47.3,30.08,South,178,0.0,0.0,64,0.00,,,0.00,Wunderground v.1.15,2013-10-09 04:36:00,
2013-10-08 23:41:00,59.5,47.3,30.08,South,186,0.0,0.0,64,0.00,,,0.00,Wunderground v.1.15,2013-10-09 04:41:00,
2013-10-08 23:46:00,59.3,47.5,30.08,SW,215,0.0,0.0,65,0.00,,,0.00,Wunderground v.1.15,2013-10-09 04:46:00,
2013-10-08 23:51:00,59.2,47.4,30.08,SSE,148,0.0,0.0,65,0.00,,,0.00,Wunderground v.1.15,2013-10-09 04:51:00,
2013-10-08 23:56:00,59.2,47.4,30.08,SSW,195,0.0,0.0,65,0.00,,,0.00,Wunderground v.1.15,2013-10-09 04:56:00,